Weather in Voloma

Russia / Republic of Karelia     63°44′40″N   31°55′22″E
temp.,
°C
wind,
m/s
gust,
m/s
humid.,
%
clouds,
%
prec.,
mm/h
press.,
hPa
HPBL,
m
5 august, thu
thu500:00+9wsw31085100 0.0 1013316
03:00+8wsw3886100 0.0 1014200
06:00+8wsw2684100 0.0 1015170
09:00+13wsw3464100 0.0 1016373
12:00+16wsw2249100 0.0 10171296
15:00+17wsw1244100 0.0 10171747
18:00+15sse1161100 0.0 101710
21:00+13sse2269100 0.0 101829
6 august, fri
fri600:00+12sse2271100 0.0 101931
03:00+12s1169100 0.0 101911
06:00+12se1167100 0.0 102011
09:00+14se1264100 0.0 102089
12:00+17ese2245100 0.0 10211026
15:00+18e23398 0.0 10201951
18:00+18e234213 0.0 10201943
21:00+14e226081 0.0 102035
7 august, sat
sat700:00+11e22745 0.0 102116
03:00+9e23775 0.0 102148
06:00+10ene25780 0.0 1022137
09:00+15e49570 0.0 1021731
12:00+18e57433 0.0 10201799
15:00+20e58395 0.0 10192024
18:00+19e584521 0.0 10181965
21:00+16ene5125785 0.0 1018682
8 august, sun
sun800:00+12ene4137398 0.0 1018391
03:00+11ene41379100 0.0 1018359
06:00+12ene51474100 0.0 1017513
09:00+15e61362100 0.0 1017866
12:00+17e61256100 0.0 10171172
15:00+14e51170100 0.3 1017877
18:00+15e51160100 0.0 10161088
21:00+12ese3128298 0.1 1018602
9 august, mon
mon900:00+10e31282100 0.0 1018489
03:00+12e51373100 0.1 1017833
06:00+11ene31084100 0.3 1017623
09:00+12e3118098 0.3 1017672
12:00+18ese585371 0.0 10171264
15:00+19se5755100 0.0 10171507
18:00+17ese4106484 0.0 1017887
21:00+14ese397896 0.0 1017404